Time,TemperatureF,DewpointF,PressureIn,WindDirection,WindDirectionDegrees,WindSpeedMPH,WindSpeedGustMPH,Humidity,HourlyPrecipIn,Conditions,Clouds,dailyrainin,SoftwareType,DateUTC
2014-01-08 00:00:00,21.7,20.2,30.24,ESE,111,0.0,0.0,94,0.00,,,0.00,Wunderground v.1.12,2014-01-08 07:00:00,
2014-01-08 00:05:00,22.0,20.3,30.24,ESE,106,0.0,0.0,93,0.00,,,0.00,Wunderground v.1.12,2014-01-08 07:05:00,
2014-01-08 00:10:00,21.8,20.3,30.24,ESE,108,0.0,0.0,94,0.00,,,0.00,Wunderground v.1.12,2014-01-08 07:10:00,
2014-01-08 00:20:00,21.8,20.3,30.24,ESE,109,0.0,0.0,94,0.00,,,0.00,Wunderground v.1.12,2014-01-08 07:20:00,
2014-01-08 00:25:00,22.0,20.5,30.24,ESE,110,0.0,0.0,94,0.00,,,0.00,Wunderground v.1.12,2014-01-08 07:25:00,
2014-01-08 00:30:00,21.7,20.2,30.23,ESE,112,0.0,0.0,94,0.00,,,0.00,Wunderground v.1.12,2014-01-08 07:30:00,
2014-01-08 00:35:00,22.0,20.5,30.23,ESE,107,0.0,0.0,94,0.00,,,0.00,Wunderground v.1.12,2014-01-08 07:35:00,
2014-01-08 00:40:00,21.9,20.4,30.24,ESE,111,0.0,0.0,94,0.00,,,0.00,Wunderground v.1.12,2014-01-08 07:40:00,
2014-01-08 00:45:00,21.9,20.4,30.23,ESE,111,0.0,0.0,94,0.00,,,0.00,Wunderground v.1.12,2014-01-08 07:45:00,
2014-01-08 00:55:00,21.8,20.3,30.23,ESE,111,0.0,0.0,94,0.00,,,0.00,Wunderground v.1.12,2014-01-08 07:55:00,
2014-01-08 01:00:00,21.8,20.3,30.23,ESE,112,0.0,0.0,94,0.00,,,0.00,Wunderground v.1.12,2014-01-08 08:00:00,
2014-01-08 01:05:00,21.8,20.3,30.23,ESE,107,0.0,0.0,94,0.00,,,0.00,Wunderground v.1.12,2014-01-08 08:05:00,
2014-01-08 01:15:00,22.2,20.7,30.24,ESE,108,0.0,0.0,94,0.00,,,0.00,Wunderground v.1.12,2014-01-08 08:15:00,
2014-01-08 01:20:00,21.8,20.3,30.23,ESE,106,0.0,0.0,94,0.00,,,0.00,Wunderground v.1.12,2014-01-08 08:20:00,
2014-01-08 01:25:00,21.9,20.4,30.23,ESE,109,0.0,0.0,94,0.00,,,0.00,Wunderground v.1.12,2014-01-08 08:25:00,
2014-01-08 01:30:00,21.9,20.7,30.24,ESE,108,0.0,0.0,95,0.00,,,0.00,Wunderground v.1.12,2014-01-08 08:30:00,
2014-01-08 01:40:00,21.9,20.7,30.23,ESE,109,0.0,0.0,95,0.00,,,0.00,Wunderground v.1.12,2014-01-08 08:40:00,
2014-01-08 01:45:00,22.0,20.8,30.23,ESE,110,0.0,0.0,95,0.00,,,0.00,Wunderground v.1.12,2014-01-08 08:45:00,
2014-01-08 01:50:00,21.9,20.7,30.23,ESE,111,0.0,0.0,95,0.00,,,0.00,Wunderground v.1.12,2014-01-08 08:50:00,
2014-01-08 01:55:00,21.8,20.6,30.23,ESE,108,0.0,0.0,95,0.00,,,0.00,Wunderground v.1.12,2014-01-08 08:55:00,
2014-01-08 02:00:00,22.0,20.8,30.23,ESE,113,0.0,0.0,95,0.00,,,0.00,Wunderground v.1.12,2014-01-08 09:00:00,
2014-01-08 02:05:00,21.9,20.7,30.23,ESE,110,0.0,0.0,95,0.00,,,0.00,Wunderground v.1.12,2014-01-08 09:05:00,
2014-01-08 02:15:00,21.8,20.6,30.23,ESE,106,0.0,0.0,95,0.00,,,0.00,Wunderground v.1.12,2014-01-08 09:15:00,
2014-01-08 02:20:00,21.7,20.5,30.23,ESE,111,0.0,0.0,95,0.00,,,0.00,Wunderground v.1.12,2014-01-08 09:20:00,
2014-01-08 02:25:00,21.9,20.7,30.23,ESE,108,0.0,0.0,95,0.00,,,0.00,Wunderground v.1.12,2014-01-08 09:25:00,
2014-01-08 02:30:00,21.8,20.3,30.23,ESE,107,0.0,0.0,94,0.00,,,0.00,Wunderground v.1.12,2014-01-08 09:30:00,
2014-01-08 02:35:00,22.0,20.8,30.23,ESE,109,0.0,0.0,95,0.00,,,0.00,Wunderground v.1.12,2014-01-08 09:35:00,
2014-01-08 02:40:00,22.2,20.7,30.23,ESE,111,0.0,0.0,94,0.00,,,0.00,Wunderground v.1.12,2014-01-08 09:40:00,
2014-01-08 02:50:00,22.0,20.5,30.24,ESE,108,0.0,0.0,94,0.00,,,0.00,Wunderground v.1.12,2014-01-08 09:50:00,
2014-01-08 02:55:00,22.1,20.6,30.24,ESE,109,0.0,0.0,94,0.00,,,0.00,Wunderground v.1.12,2014-01-08 09:55:00,
2014-01-08 03:00:00,22.2,20.7,30.24,ESE,109,0.0,0.0,94,0.00,,,0.00,Wunderground v.1.12,2014-01-08 10:00:00,
2014-01-08 03:05:00,22.1,20.6,30.24,ESE,106,0.0,0.0,94,0.00,,,0.00,Wunderground v.1.12,2014-01-08 10:05:00,
2014-01-08 03:15:00,22.5,21.0,30.24,ESE,109,0.0,0.0,94,0.00,,,0.00,Wunderground v.1.12,2014-01-08 10:15:00,
2014-01-08 03:20:00,22.4,21.2,30.24,ESE,109,0.0,0.0,95,0.00,,,0.00,Wunderground v.1.12,2014-01-08 10:20:00,
2014-01-08 03:25:00,22.2,20.7,30.24,ESE,106,0.0,0.0,94,0.00,,,0.00,Wunderground v.1.12,2014-01-08 10:25:00,
2014-01-08 03:30:00,22.3,21.1,30.24,ESE,107,0.0,0.0,95,0.00,,,0.00,Wunderground v.1.12,2014-01-08 10:30:00,
2014-01-08 03:35:00,22.3,21.1,30.24,ESE,109,0.0,0.0,95,0.00,,,0.00,Wunderground v.1.12,2014-01-08 10:35:00,
2014-01-08 03:45:00,22.4,21.2,30.24,ESE,107,0.0,0.0,95,0.00,,,0.00,Wunderground v.1.12,2014-01-08 10:45:00,
2014-01-08 03:50:00,22.4,21.2,30.24,ESE,105,0.0,0.0,95,0.00,,,0.00,Wunderground v.1.12,2014-01-08 10:50:00,
2014-01-08 03:55:00,22.5,21.3,30.24,ESE,109,0.0,0.0,95,0.00,,,0.00,Wunderground v.1.12,2014-01-08 10:55:00,
2014-01-08 04:00:00,22.3,21.1,30.24,ESE,111,0.0,0.0,95,0.00,,,0.00,Wunderground v.1.12,2014-01-08 11:00:00,
2014-01-08 04:05:00,22.5,21.3,30.24,ESE,112,0.0,0.0,95,0.00,,,0.00,Wunderground v.1.12,2014-01-08 11:05:00,
2014-01-08 04:10:00,22.4,21.2,30.23,ESE,109,0.0,0.0,95,0.00,,,0.00,Wunderground v.1.12,2014-01-08 11:10:00,
2014-01-08 04:20:00,22.3,21.1,30.23,ESE,109,0.0,0.0,95,0.00,,,0.00,Wunderground v.1.12,2014-01-08 11:20:00,
2014-01-08 04:25:00,22.3,21.1,30.23,ESE,107,0.0,0.0,95,0.00,,,0.00,Wunderground v.1.12,2014-01-08 11:25:00,
2014-01-08 04:30:00,22.3,21.1,30.23,ESE,109,0.0,0.0,95,0.00,,,0.00,Wunderground v.1.12,2014-01-08 11:30:00,
2014-01-08 04:35:00,22.4,21.2,30.23,ESE,108,0.0,0.0,95,0.00,,,0.00,Wunderground v.1.12,2014-01-08 11:35:00,
2014-01-08 04:40:00,22.4,21.2,30.23,ESE,106,0.0,0.0,95,0.00,,,0.00,Wunderground v.1.12,2014-01-08 11:40:00,
2014-01-08 04:45:00,22.6,21.4,30.23,ESE,108,0.0,0.0,95,0.00,,,0.00,Wunderground v.1.12,2014-01-08 11:45:00,
2014-01-08 04:55:00,22.4,21.2,30.22,ESE,107,0.0,0.0,95,0.00,,,0.00,Wunderground v.1.12,2014-01-08 11:55:00,
2014-01-08 05:00:00,22.5,21.3,30.23,ESE,109,0.0,0.0,95,0.00,,,0.00,Wunderground v.1.12,2014-01-08 12:00:00,
2014-01-08 05:05:00,22.6,21.4,30.22,ESE,107,0.0,0.0,95,0.00,,,0.00,Wunderground v.1.12,2014-01-08 12:05:00,
2014-01-08 05:10:00,22.7,21.5,30.22,ESE,112,0.0,0.0,95,0.00,,,0.00,Wunderground v.1.12,2014-01-08 12:10:00,
2014-01-08 05:15:00,22.5,21.3,30.22,ESE,109,0.0,0.0,95,0.00,,,0.00,Wunderground v.1.12,2014-01-08 12:15:00,
2014-01-08 05:20:00,22.8,21.6,30.22,ESE,107,0.0,0.0,95,0.00,,,0.00,Wunderground v.1.12,2014-01-08 12:20:00,
2014-01-08 05:25:00,22.8,21.6,30.22,ESE,112,0.0,0.0,95,0.00,,,0.00,Wunderground v.1.12,2014-01-08 12:25:00,
2014-01-08 05:35:00,22.5,21.3,30.22,ESE,110,0.0,0.0,95,0.00,,,0.00,Wunderground v.1.12,2014-01-08 12:35:00,
2014-01-08 05:40:00,22.7,21.5,30.22,ESE,108,0.0,0.0,95,0.00,,,0.00,Wunderground v.1.12,2014-01-08 12:40:00,
2014-01-08 05:45:00,22.8,21.6,30.22,ESE,107,0.0,0.0,95,0.00,,,0.00,Wunderground v.1.12,2014-01-08 12:45:00,
2014-01-08 05:50:00,22.5,21.3,30.22,ESE,107,0.0,0.0,95,0.00,,,0.00,Wunderground v.1.12,2014-01-08 12:50:00,
2014-01-08 05:55:00,22.6,21.4,30.22,ESE,105,0.0,0.0,95,0.00,,,0.00,Wunderground v.1.12,2014-01-08 12:55:00,
2014-01-08 06:00:00,22.7,21.5,30.22,ESE,109,0.0,0.0,95,0.00,,,0.00,Wunderground v.1.12,2014-01-08 13:00:00,
2014-01-08 06:10:00,22.7,21.7,30.21,ESE,107,0.0,0.0,96,0.00,,,0.00,Wunderground v.1.12,2014-01-08 13:10:00,
2014-01-08 06:15:00,22.9,21.9,30.21,ESE,110,0.0,0.0,96,0.00,,,0.00,Wunderground v.1.12,2014-01-08 13:15:00,
2014-01-08 06:20:00,22.6,21.6,30.21,ESE,110,0.0,0.0,96,0.00,,,0.00,Wunderground v.1.12,2014-01-08 13:20:00,
2014-01-08 06:25:00,22.9,21.9,30.20,ESE,110,0.0,0.0,96,0.00,,,0.00,Wunderground v.1.12,2014-01-08 13:25:00,
2014-01-08 06:30:00,22.7,21.7,30.20,ESE,110,0.0,0.0,96,0.00,,,0.00,Wunderground v.1.12,2014-01-08 13:30:00,
2014-01-08 06:35:00,22.6,21.6,30.20,ESE,108,0.0,0.0,96,0.00,,,0.00,Wunderground v.1.12,2014-01-08 13:35:00,
2014-01-08 06:45:00,22.9,21.9,30.21,ESE,109,0.0,0.0,96,0.00,,,0.00,Wunderground v.1.12,2014-01-08 13:45:00,
2014-01-08 06:50:00,22.9,21.9,30.21,ESE,106,0.0,0.0,96,0.00,,,0.00,Wunderground v.1.12,2014-01-08 13:50:00,
2014-01-08 06:55:00,22.8,21.8,30.21,ESE,109,0.0,0.0,96,0.00,,,0.00,Wunderground v.1.12,2014-01-08 13:55:00,
2014-01-08 07:00:00,22.9,21.9,30.20,ESE,104,0.0,0.0,96,0.00,,,0.00,Wunderground v.1.12,2014-01-08 14:00:00,
2014-01-08 07:05:00,22.9,22.2,30.20,ESE,106,0.0,0.0,97,0.00,,,0.00,Wunderground v.1.12,2014-01-08 14:05:00,
2014-01-08 07:15:00,22.8,21.8,30.20,ESE,108,0.0,0.0,96,0.00,,,0.00,Wunderground v.1.12,2014-01-08 14:15:00,
2014-01-08 07:20:00,22.9,21.9,30.20,ESE,105,0.0,0.0,96,0.00,,,0.00,Wunderground v.1.12,2014-01-08 14:20:00,
2014-01-08 07:25:00,23.0,22.3,30.20,ESE,111,0.0,0.0,97,0.00,,,0.00,Wunderground v.1.12,2014-01-08 14:25:00,
2014-01-08 07:30:00,22.7,21.7,30.20,ESE,106,0.0,0.0,96,0.00,,,0.00,Wunderground v.1.12,2014-01-08 14:30:00,
2014-01-08 07:35:00,23.0,22.3,30.20,ESE,111,0.0,0.0,97,0.00,,,0.00,Wunderground v.1.12,2014-01-08 14:35:00,
2014-01-08 07:40:00,23.0,22.3,30.20,ESE,107,0.0,0.0,97,0.00,,,0.00,Wunderground v.1.12,2014-01-08 14:40:00,
2014-01-08 07:45:00,22.8,22.1,30.20,ESE,108,0.0,0.0,97,0.00,,,0.00,Wunderground v.1.12,2014-01-08 14:45:00,
2014-01-08 07:55:00,22.9,22.2,30.20,ESE,105,0.0,0.0,97,0.00,,,0.00,Wunderground v.1.12,2014-01-08 14:55:00,
2014-01-08 08:00:00,23.1,22.4,30.20,ESE,103,0.0,0.0,97,0.00,,,0.00,Wunderground v.1.12,2014-01-08 15:00:00,
2014-01-08 08:05:00,23.0,22.3,30.20,ESE,111,0.0,0.0,97,0.00,,,0.00,Wunderground v.1.12,2014-01-08 15:05:00,
2014-01-08 08:10:00,23.3,22.6,30.20,ESE,107,0.0,0.0,97,0.00,,,0.00,Wunderground v.1.12,2014-01-08 15:10:00,
2014-01-08 08:15:00,23.1,22.4,30.20,ESE,108,0.0,0.0,97,0.00,,,0.00,Wunderground v.1.12,2014-01-08 15:15:00,
2014-01-08 08:20:00,23.2,22.5,30.20,ESE,105,0.0,0.0,97,0.00,,,0.00,Wunderground v.1.12,2014-01-08 15:20:00,
2014-01-08 08:30:00,23.0,22.0,30.20,ESE,107,0.0,0.0,96,0.00,,,0.00,Wunderground v.1.12,2014-01-08 15:30:00,
2014-01-08 08:35:00,23.0,22.0,30.20,ESE,107,0.0,0.0,96,0.00,,,0.00,Wunderground v.1.12,2014-01-08 15:35:00,
2014-01-08 08:40:00,23.0,22.3,30.20,ESE,104,0.0,0.0,97,0.00,,,0.00,Wunderground v.1.12,2014-01-08 15:40:00,
2014-01-08 08:45:00,23.1,22.1,30.20,ESE,108,0.0,0.0,96,0.00,,,0.00,Wunderground v.1.12,2014-01-08 15:45:00,
2014-01-08 08:50:00,23.1,22.1,30.20,ESE,107,0.0,0.0,96,0.00,,,0.00,Wunderground v.1.12,2014-01-08 15:50:00,
2014-01-08 08:55:00,23.1,22.1,30.20,ESE,106,0.0,0.0,96,0.00,,,0.00,Wunderground v.1.12,2014-01-08 15:55:00,
2014-01-08 09:05:00,23.3,22.3,30.20,ESE,104,0.0,0.0,96,0.00,,,0.00,Wunderground v.1.12,2014-01-08 16:05:00,
2014-01-08 09:10:00,23.1,22.1,30.20,ESE,107,0.0,0.0,96,0.00,,,0.00,Wunderground v.1.12,2014-01-08 16:10:00,
2014-01-08 09:15:00,23.3,22.3,30.20,ESE,104,0.0,0.0,96,0.00,,,0.00,Wunderground v.1.12,2014-01-08 16:15:00,
2014-01-08 09:25:00,23.4,22.7,30.20,ESE,106,0.0,0.0,97,0.00,,,0.00,Wunderground v.1.12,2014-01-08 16:25:00,
2014-01-08 09:30:00,23.3,22.6,30.20,ESE,104,0.0,0.0,97,0.00,,,0.00,Wunderground v.1.12,2014-01-08 16:30:00,
2014-01-08 09:35:00,23.3,22.6,30.20,ESE,105,0.0,0.0,97,0.00,,,0.00,Wunderground v.1.12,2014-01-08 16:35:00,
2014-01-08 09:40:00,23.6,22.9,30.20,East,100,0.0,0.0,97,0.00,,,0.00,Wunderground v.1.12,2014-01-08 16:40:00,
2014-01-08 09:45:00,23.8,23.1,30.20,ESE,102,0.0,0.0,97,0.00,,,0.00,Wunderground v.1.12,2014-01-08 16:45:00,
2014-01-08 09:50:00,23.7,23.0,30.20,ESE,105,0.0,0.0,97,0.00,,,0.00,Wunderground v.1.12,2014-01-08 16:50:00,
2014-01-08 09:55:00,23.6,22.9,30.20,East,101,0.0,0.0,97,0.00,,,0.00,Wunderground v.1.12,2014-01-08 16:55:00,
2014-01-08 10:00:00,23.5,22.8,30.20,ESE,103,0.0,0.0,97,0.00,,,0.00,Wunderground v.1.12,2014-01-08 17:00:00,
2014-01-08 10:10:00,23.6,22.9,30.20,ESE,105,0.0,0.0,97,0.00,,,0.00,Wunderground v.1.12,2014-01-08 17:10:00,
2014-01-08 10:15:00,23.7,23.0,30.20,ESE,104,0.0,0.0,97,0.00,,,0.00,Wunderground v.1.12,2014-01-08 17:15:00,
2014-01-08 10:20:00,23.7,23.0,30.19,East,100,0.0,0.0,97,0.00,,,0.00,Wunderground v.1.12,2014-01-08 17:20:00,
2014-01-08 10:25:00,23.9,23.2,30.19,East,98,0.0,0.0,97,0.00,,,0.00,Wunderground v.1.12,2014-01-08 17:25:00,
2014-01-08 10:30:00,23.8,23.1,30.20,ESE,102,0.0,0.0,97,0.00,,,0.00,Wunderground v.1.12,2014-01-08 17:30:00,
2014-01-08 10:35:00,24.2,23.5,30.20,East,98,0.0,0.0,97,0.00,,,0.00,Wunderground v.1.12,2014-01-08 17:35:00,
2014-01-08 10:45:00,24.4,23.7,30.19,East,98,0.0,0.0,97,0.00,,,0.00,Wunderground v.1.12,2014-01-08 17:45:00,
2014-01-08 10:50:00,24.7,24.0,30.20,East,101,0.0,0.0,97,0.00,,,0.00,Wunderground v.1.12,2014-01-08 17:50:00,
2014-01-08 10:55:00,24.8,24.1,30.19,East,100,0.0,0.0,97,0.00,,,0.00,Wunderground v.1.12,2014-01-08 17:55:00,
2014-01-08 11:00:00,24.6,23.9,30.19,East,94,0.0,0.0,97,0.00,,,0.00,Wunderground v.1.12,2014-01-08 18:00:00,
2014-01-08 11:05:00,24.7,24.0,30.19,East,93,0.0,0.0,97,0.00,,,0.00,Wunderground v.1.12,2014-01-08 18:05:00,
2014-01-08 11:15:00,24.8,24.1,30.19,East,94,0.0,0.0,97,0.00,,,0.00,Wunderground v.1.12,2014-01-08 18:15:00,
2014-01-08 11:20:00,25.1,24.4,30.19,East,95,0.0,0.0,97,0.00,,,0.00,Wunderground v.1.12,2014-01-08 18:20:00,
2014-01-08 11:25:00,25.5,24.5,30.19,East,95,0.0,0.0,96,0.00,,,0.00,Wunderground v.1.12,2014-01-08 18:25:00,
2014-01-08 11:30:00,25.3,24.3,30.19,East,91,0.0,0.0,96,0.00,,,0.00,Wunderground v.1.12,2014-01-08 18:30:00,
2014-01-08 11:35:00,25.3,24.6,30.19,East,94,0.0,0.0,97,0.00,,,0.00,Wunderground v.1.12,2014-01-08 18:35:00,
2014-01-08 11:40:00,25.2,24.5,30.18,East,98,0.0,0.0,97,0.00,,,0.00,Wunderground v.1.12,2014-01-08 18:40:00,
2014-01-08 11:45:00,25.5,24.8,30.18,East,90,0.0,0.0,97,0.00,,,0.00,Wunderground v.1.12,2014-01-08 18:45:00,
2014-01-08 11:55:00,25.4,24.7,30.17,East,95,0.0,0.0,97,0.00,,,0.00,Wunderground v.1.12,2014-01-08 18:55:00,
2014-01-08 12:00:00,25.4,24.7,30.17,East,98,0.0,0.0,97,0.00,,,0.00,Wunderground v.1.12,2014-01-08 19:00:00,
2014-01-08 12:10:00,26.0,25.3,30.17,East,93,0.0,0.0,97,0.00,,,0.00,Wunderground v.1.12,2014-01-08 19:10:00,
2014-01-08 12:15:00,25.8,25.1,30.17,East,90,0.0,0.0,97,0.00,,,0.00,Wunderground v.1.12,2014-01-08 19:15:00,
2014-01-08 12:25:00,25.9,24.9,30.16,East,96,0.0,0.0,96,0.00,,,0.00,Wunderground v.1.12,2014-01-08 19:25:00,
2014-01-08 12:30:00,25.7,24.7,30.16,East,93,0.0,0.0,96,0.00,,,0.00,Wunderground v.1.12,2014-01-08 19:30:00,
2014-01-08 12:35:00,26.1,25.1,30.16,East,93,0.0,0.0,96,0.00,,,0.00,Wunderground v.1.12,2014-01-08 19:35:00,
2014-01-08 12:40:00,26.0,25.0,30.15,East,92,0.0,0.0,96,0.00,,,0.00,Wunderground v.1.12,2014-01-08 19:40:00,
2014-01-08 12:45:00,26.1,25.1,30.15,East,90,0.0,0.0,96,0.00,,,0.00,Wunderground v.1.12,2014-01-08 19:45:00,
2014-01-08 12:50:00,26.1,25.1,30.15,East,88,0.0,0.0,96,0.00,,,0.00,Wunderground v.1.12,2014-01-08 19:50:00,
2014-01-08 12:55:00,26.2,25.2,30.15,East,93,0.0,0.0,96,0.00,,,0.00,Wunderground v.1.12,2014-01-08 19:55:00,
2014-01-08 13:05:00,26.5,25.5,30.15,East,94,0.0,0.0,96,0.00,,,0.00,Wunderground v.1.12,2014-01-08 20:05:00,
2014-01-08 13:10:00,26.5,25.5,30.15,East,92,0.0,0.0,96,0.00,,,0.00,Wunderground v.1.12,2014-01-08 20:10:00,
2014-01-08 13:15:00,26.5,25.5,30.14,East,90,0.0,0.0,96,0.00,,,0.00,Wunderground v.1.12,2014-01-08 20:15:00,
2014-01-08 13:20:00,26.7,25.5,30.14,East,91,0.0,0.0,95,0.00,,,0.00,Wunderground v.1.12,2014-01-08 20:20:00,
2014-01-08 13:25:00,27.0,25.8,30.14,East,91,0.0,0.0,95,0.00,,,0.00,Wunderground v.1.12,2014-01-08 20:25:00,
2014-01-08 13:35:00,26.8,25.6,30.14,East,88,0.0,0.0,95,0.00,,,0.00,Wunderground v.1.12,2014-01-08 20:35:00,
2014-01-08 13:40:00,27.0,25.8,30.13,East,93,0.0,0.0,95,0.00,,,0.00,Wunderground v.1.12,2014-01-08 20:40:00,
2014-01-08 13:45:00,26.9,25.7,30.13,East,88,0.0,0.0,95,0.00,,,0.00,Wunderground v.1.12,2014-01-08 20:45:00,
2014-01-08 13:55:00,27.1,25.9,30.13,East,93,0.0,0.0,95,0.00,,,0.00,Wunderground v.1.12,2014-01-08 20:55:00,
2014-01-08 14:00:00,26.9,25.7,30.13,East,90,0.0,0.0,95,0.00,,,0.00,Wunderground v.1.12,2014-01-08 21:00:00,
2014-01-08 14:10:00,27.0,25.8,30.12,East,92,0.0,0.0,95,0.00,,,0.00,Wunderground v.1.12,2014-01-08 21:10:00,
2014-01-08 14:15:00,27.1,25.9,30.13,East,88,0.0,0.0,95,0.00,,,0.00,Wunderground v.1.12,2014-01-08 21:15:00,
2014-01-08 14:20:00,27.0,25.8,30.12,East,89,0.0,0.0,95,0.00,,,0.00,Wunderground v.1.12,2014-01-08 21:20:00,
2014-01-08 14:25:00,27.1,25.9,30.12,East,89,0.0,0.0,95,0.00,,,0.00,Wunderground v.1.12,2014-01-08 21:25:00,
2014-01-08 14:30:00,27.5,26.3,30.12,East,88,0.0,0.0,95,0.00,,,0.00,Wunderground v.1.12,2014-01-08 21:30:00,
2014-01-08 14:40:00,27.2,26.2,30.12,East,91,0.0,0.0,96,0.00,,,0.00,Wunderground v.1.12,2014-01-08 21:40:00,
2014-01-08 14:45:00,27.8,26.8,30.12,East,87,0.0,0.0,96,0.00,,,0.00,Wunderground v.1.12,2014-01-08 21:45:00,
2014-01-08 14:50:00,27.6,26.4,30.12,East,87,0.0,0.0,95,0.00,,,0.00,Wunderground v.1.12,2014-01-08 21:50:00,
2014-01-08 14:55:00,27.4,26.4,30.12,East,89,0.0,0.0,96,0.00,,,0.00,Wunderground v.1.12,2014-01-08 21:55:00,
2014-01-08 15:00:00,27.3,26.3,30.12,East,88,0.0,0.0,96,0.00,,,0.00,Wunderground v.1.12,2014-01-08 22:00:00,
2014-01-08 15:05:00,27.7,26.7,30.12,East,90,0.0,0.0,96,0.00,,,0.00,Wunderground v.1.12,2014-01-08 22:05:00,
2014-01-08 15:15:00,27.5,26.3,30.11,East,86,0.0,0.0,95,0.00,,,0.00,Wunderground v.1.12,2014-01-08 22:15:00,
2014-01-08 15:20:00,27.7,26.7,30.11,East,90,0.0,0.0,96,0.00,,,0.00,Wunderground v.1.12,2014-01-08 22:20:00,
2014-01-08 15:25:00,28.1,27.1,30.11,East,86,0.0,0.0,96,0.00,,,0.00,Wunderground v.1.12,2014-01-08 22:25:00,
2014-01-08 15:30:00,28.0,27.0,30.11,East,92,0.0,0.0,96,0.00,,,0.00,Wunderground v.1.12,2014-01-08 22:30:00,
2014-01-08 15:35:00,27.9,26.9,30.11,East,91,0.0,0.0,96,0.00,,,0.00,Wunderground v.1.12,2014-01-08 22:35:00,
2014-01-08 15:45:00,27.5,26.8,30.10,East,91,0.0,0.0,97,0.00,,,0.00,Wunderground v.1.12,2014-01-08 22:45:00,
2014-01-08 15:50:00,27.5,26.8,30.10,East,89,0.0,0.0,97,0.00,,,0.00,Wunderground v.1.12,2014-01-08 22:50:00,
2014-01-08 15:55:00,27.9,27.2,30.11,East,89,0.0,0.0,97,0.00,,,0.00,Wunderground v.1.12,2014-01-08 22:55:00,
2014-01-08 16:00:00,27.4,26.7,30.11,East,91,0.0,0.0,97,0.00,,,0.00,Wunderground v.1.12,2014-01-08 23:00:00,
2014-01-08 16:05:00,27.8,27.1,30.11,East,90,0.0,0.0,97,0.00,,,0.00,Wunderground v.1.12,2014-01-08 23:05:00,
2014-01-08 16:10:00,27.8,27.1,30.10,East,91,0.0,0.0,97,0.00,,,0.00,Wunderground v.1.12,2014-01-08 23:10:00,
2014-01-08 16:20:00,27.5,27.0,30.10,East,94,0.0,0.0,98,0.00,,,0.00,Wunderground v.1.12,2014-01-08 23:20:00,
2014-01-08 16:25:00,27.5,27.0,30.10,East,90,0.0,0.0,98,0.00,,,0.00,Wunderground v.1.12,2014-01-08 23:25:00,
2014-01-08 16:30:00,27.7,27.2,30.10,East,93,0.0,0.0,98,0.00,,,0.00,Wunderground v.1.12,2014-01-08 23:30:00,
2014-01-08 16:35:00,27.6,27.1,30.10,East,91,0.0,0.0,98,0.00,,,0.00,Wunderground v.1.12,2014-01-08 23:35:00,
2014-01-08 16:40:00,27.7,27.0,30.10,East,93,0.0,0.0,97,0.00,,,0.00,Wunderground v.1.12,2014-01-08 23:40:00,
2014-01-08 16:50:00,27.3,26.8,30.10,East,91,0.0,0.0,98,0.00,,,0.00,Wunderground v.1.12,2014-01-08 23:50:00,
2014-01-08 17:00:00,27.3,26.8,30.10,East,94,0.0,0.0,98,0.00,,,0.00,Wunderground v.1.12,2014-01-09 00:00:00,
2014-01-08 17:05:00,27.3,26.8,30.09,East,90,0.0,0.0,98,0.00,,,0.00,Wunderground v.1.12,2014-01-09 00:05:00,
2014-01-08 17:10:00,27.6,26.9,30.09,East,92,0.0,0.0,97,0.00,,,0.00,Wunderground v.1.12,2014-01-09 00:10:00,
2014-01-08 17:15:00,27.5,27.0,30.09,East,93,0.0,0.0,98,0.00,,,0.00,Wunderground v.1.12,2014-01-09 00:15:00,
2014-01-08 17:20:00,27.2,26.7,30.09,East,91,0.0,0.0,98,0.00,,,0.00,Wunderground v.1.12,2014-01-09 00:20:00,
2014-01-08 17:30:00,27.0,26.3,30.08,East,94,0.0,0.0,97,0.00,,,0.00,Wunderground v.1.12,2014-01-09 00:30:00,
2014-01-08 17:35:00,27.0,26.5,30.08,East,93,0.0,0.0,98,0.00,,,0.00,Wunderground v.1.12,2014-01-09 00:35:00,
2014-01-08 17:40:00,27.2,26.7,30.08,East,94,0.0,0.0,98,0.00,,,0.00,Wunderground v.1.12,2014-01-09 00:40:00,
2014-01-08 17:45:00,26.9,26.4,30.08,East,93,0.0,0.0,98,0.00,,,0.00,Wunderground v.1.12,2014-01-09 00:45:00,
2014-01-08 17:50:00,27.3,26.8,30.08,East,92,0.0,0.0,98,0.00,,,0.00,Wunderground v.1.12,2014-01-09 00:50:00,
2014-01-08 18:00:00,26.9,26.4,30.08,East,94,0.0,0.0,98,0.00,,,0.00,Wunderground v.1.12,2014-01-09 01:00:00,
2014-01-08 18:10:00,27.2,26.7,30.07,East,92,0.0,0.0,98,0.00,,,0.00,Wunderground v.1.12,2014-01-09 01:10:00,
2014-01-08 18:15:00,27.1,26.6,30.07,East,91,0.0,0.0,98,0.00,,,0.00,Wunderground v.1.12,2014-01-09 01:15:00,
2014-01-08 18:20:00,26.9,26.4,30.07,East,93,0.0,0.0,98,0.00,,,0.00,Wunderground v.1.12,2014-01-09 01:20:00,
2014-01-08 18:25:00,27.2,26.7,30.07,East,92,0.0,0.0,98,0.00,,,0.00,Wunderground v.1.12,2014-01-09 01:25:00,
2014-01-08 18:30:00,27.1,26.6,30.07,East,91,0.0,0.0,98,0.00,,,0.00,Wunderground v.1.12,2014-01-09 01:30:00,
2014-01-08 18:35:00,27.1,26.6,30.07,East,91,0.0,0.0,98,0.00,,,0.00,Wunderground v.1.12,2014-01-09 01:35:00,
2014-01-08 18:45:00,26.9,26.4,30.06,East,91,0.0,0.0,98,0.00,,,0.00,Wunderground v.1.12,2014-01-09 01:45:00,
2014-01-08 18:50:00,27.3,26.8,30.06,East,92,0.0,0.0,98,0.00,,,0.00,Wunderground v.1.12,2014-01-09 01:50:00,
2014-01-08 18:55:00,27.1,26.6,30.06,East,92,0.0,0.0,98,0.00,,,0.00,Wunderground v.1.12,2014-01-09 01:55:00,
2014-01-08 19:00:00,26.9,26.4,30.06,East,95,0.0,0.0,98,0.00,,,0.00,Wunderground v.1.12,2014-01-09 02:00:00,
2014-01-08 19:05:00,27.3,26.8,30.06,East,99,0.0,0.0,98,0.00,,,0.00,Wunderground v.1.12,2014-01-09 02:05:00,
2014-01-08 19:15:00,26.8,26.3,30.05,East,95,0.0,0.0,98,0.00,,,0.00,Wunderground v.1.12,2014-01-09 02:15:00,
2014-01-08 19:20:00,27.0,26.5,30.05,East,92,0.0,0.0,98,0.00,,,0.00,Wunderground v.1.12,2014-01-09 02:20:00,
2014-01-08 19:25:00,26.8,26.3,30.05,East,94,0.0,0.0,98,0.00,,,0.00,Wunderground v.1.12,2014-01-09 02:25:00,
2014-01-08 19:30:00,26.8,26.3,30.05,East,96,0.0,0.0,98,0.00,,,0.00,Wunderground v.1.12,2014-01-09 02:30:00,
2014-01-08 19:35:00,26.6,25.9,30.04,East,93,0.0,0.0,97,0.00,,,0.00,Wunderground v.1.12,2014-01-09 02:35:00,
2014-01-08 19:40:00,26.7,26.2,30.04,East,98,0.0,0.0,98,0.00,,,0.00,Wunderground v.1.12,2014-01-09 02:40:00,
2014-01-08 19:50:00,26.5,26.0,30.04,East,94,0.0,0.0,98,0.00,,,0.00,Wunderground v.1.12,2014-01-09 02:50:00,
2014-01-08 19:55:00,26.9,26.4,30.03,East,97,0.0,0.0,98,0.00,,,0.00,Wunderground v.1.12,2014-01-09 02:55:00,
2014-01-08 20:00:00,26.7,26.2,30.03,East,99,0.0,0.0,98,0.00,,,0.00,Wunderground v.1.12,2014-01-09 03:00:00,
2014-01-08 20:05:00,27.1,26.4,30.03,East,99,0.0,0.0,97,0.00,,,0.00,Wunderground v.1.12,2014-01-09 03:05:00,
2014-01-08 20:10:00,26.8,26.3,30.03,East,93,0.0,0.0,98,0.00,,,0.00,Wunderground v.1.12,2014-01-09 03:10:00,
2014-01-08 20:15:00,26.7,26.0,30.02,East,94,0.0,0.0,97,0.00,,,0.00,Wunderground v.1.12,2014-01-09 03:15:00,
2014-01-08 20:25:00,26.5,26.0,30.02,East,96,0.0,0.0,98,0.00,,,0.00,Wunderground v.1.12,2014-01-09 03:25:00,
2014-01-08 20:30:00,26.9,26.4,30.02,East,97,0.0,0.0,98,0.00,,,0.00,Wunderground v.1.12,2014-01-09 03:30:00,
2014-01-08 20:35:00,26.5,26.0,30.01,East,95,0.0,0.0,98,0.00,,,0.00,Wunderground v.1.12,2014-01-09 03:35:00,
2014-01-08 20:40:00,26.8,26.3,30.01,East,98,0.0,0.0,98,0.00,,,0.00,Wunderground v.1.12,2014-01-09 03:40:00,
2014-01-08 20:50:00,26.6,26.1,30.01,East,97,0.0,0.0,98,0.00,,,0.00,Wunderground v.1.12,2014-01-09 03:50:00,
2014-01-08 21:00:00,26.5,26.0,30.01,East,100,0.0,0.0,98,0.00,,,0.00,Wunderground v.1.12,2014-01-09 04:00:00,
2014-01-08 21:05:00,26.5,26.0,30.00,East,99,0.0,0.0,98,0.00,,,0.00,Wunderground v.1.12,2014-01-09 04:05:00,
2014-01-08 21:10:00,26.3,25.8,30.00,East,101,0.0,0.0,98,0.00,,,0.00,Wunderground v.1.12,2014-01-09 04:10:00,
2014-01-08 21:15:00,26.4,25.9,30.00,East,97,0.0,0.0,98,0.00,,,0.00,Wunderground v.1.12,2014-01-09 04:15:00,
2014-01-08 21:20:00,26.1,25.6,30.00,East,95,0.0,0.0,98,0.00,,,0.00,Wunderground v.1.12,2014-01-09 04:20:00,
2014-01-08 21:25:00,26.6,26.1,30.00,East,96,0.0,0.0,98,0.00,,,0.00,Wunderground v.1.12,2014-01-09 04:25:00,
2014-01-08 21:35:00,25.9,25.2,29.99,ESE,104,0.0,0.0,97,0.00,,,0.00,Wunderground v.1.12,2014-01-09 04:35:00,
2014-01-08 21:40:00,25.9,25.2,30.00,East,100,0.0,0.0,97,0.00,,,0.00,Wunderground v.1.12,2014-01-09 04:40:00,
2014-01-08 21:45:00,26.0,25.3,29.99,East,98,0.0,0.0,97,0.00,,,0.00,Wunderground v.1.12,2014-01-09 04:45:00,
2014-01-08 21:50:00,26.0,25.5,29.99,East,100,0.0,0.0,98,0.00,,,0.00,Wunderground v.1.12,2014-01-09 04:50:00,
2014-01-08 21:55:00,25.8,25.1,29.99,East,98,0.0,0.0,97,0.00,,,0.00,Wunderground v.1.12,2014-01-09 04:55:00,
2014-01-08 22:00:00,25.8,25.3,29.99,ESE,102,0.0,0.0,98,0.00,,,0.00,Wunderground v.1.12,2014-01-09 05:00:00,
2014-01-08 22:05:00,25.7,25.2,29.98,East,100,0.0,0.0,98,0.00,,,0.00,Wunderground v.1.12,2014-01-09 05:05:00,
2014-01-08 22:10:00,25.9,25.4,29.98,East,100,0.0,0.0,98,0.00,,,0.00,Wunderground v.1.12,2014-01-09 05:10:00,
2014-01-08 22:15:00,25.7,25.0,29.98,East,100,0.0,0.0,97,0.00,,,0.00,Wunderground v.1.12,2014-01-09 05:15:00,
2014-01-08 22:20:00,25.9,25.2,29.98,ESE,103,0.0,0.0,97,0.00,,,0.00,Wunderground v.1.12,2014-01-09 05:20:00,
2014-01-08 22:25:00,25.6,24.9,29.98,ESE,103,0.0,0.0,97,0.00,,,0.00,Wunderground v.1.12,2014-01-09 05:25:00,
2014-01-08 22:30:00,25.7,25.0,29.98,East,99,0.0,0.0,97,0.00,,,0.00,Wunderground v.1.12,2014-01-09 05:30:00,
2014-01-08 22:35:00,25.9,25.2,29.98,East,99,0.0,0.0,97,0.00,,,0.00,Wunderground v.1.12,2014-01-09 05:35:00,
2014-01-08 22:40:00,25.6,25.1,29.98,East,100,0.0,0.0,98,0.00,,,0.00,Wunderground v.1.12,2014-01-09 05:40:00,
2014-01-08 22:50:00,25.7,25.2,29.98,East,99,0.0,0.0,98,0.00,,,0.00,Wunderground v.1.12,2014-01-09 05:50:00,
2014-01-08 22:55:00,25.7,25.0,29.97,East,101,0.0,0.0,97,0.00,,,0.00,Wunderground v.1.12,2014-01-09 05:55:00,
2014-01-08 23:00:00,25.5,25.0,29.97,ESE,102,0.0,0.0,98,0.00,,,0.00,Wunderground v.1.12,2014-01-09 06:00:00,
2014-01-08 23:10:00,25.6,25.1,29.97,East,100,0.0,0.0,98,0.00,,,0.00,Wunderground v.1.12,2014-01-09 06:10:00,
2014-01-08 23:15:00,25.5,25.0,29.96,East,100,0.0,0.0,98,0.00,,,0.00,Wunderground v.1.12,2014-01-09 06:15:00,
2014-01-08 23:20:00,25.9,25.4,29.96,East,99,0.0,0.0,98,0.00,,,0.00,Wunderground v.1.12,2014-01-09 06:20:00,
2014-01-08 23:25:00,25.7,25.2,29.96,ESE,102,0.0,0.0,98,0.00,,,0.00,Wunderground v.1.12,2014-01-09 06:25:00,
2014-01-08 23:30:00,25.4,24.9,29.96,East,101,0.0,0.0,98,0.00,,,0.00,Wunderground v.1.12,2014-01-09 06:30:00,
2014-01-08 23:40:00,25.6,25.1,29.95,East,101,0.0,0.0,98,0.00,,,0.00,Wunderground v.1.12,2014-01-09 06:40:00,
2014-01-08 23:45:00,25.7,25.2,29.95,East,100,0.0,0.0,98,0.00,,,0.00,Wunderground v.1.12,2014-01-09 06:45:00,
2014-01-08 23:50:00,25.6,25.1,29.95,ESE,103,0.0,0.0,98,0.00,,,0.00,Wunderground v.1.12,2014-01-09 06:50:00,
2014-01-08 23:55:00,25.5,25.3,29.95,East,100,0.0,0.0,99,0.00,,,0.00,Wunderground v.1.12,2014-01-09 06:55:00,